Zurück zum Katalog

STARLINK-4359

AktivKommunikationSSO
NORAD 53226·PAYLOAD·🇺🇸 United States

Gestartet Jul 22, 2022 von Vandenberg Space Force Base

Loading…

Nächste Überflüge (nächste 24 Stunden)

TLE

AktuellSource: CelesTrak SupGP

Epoche: Sep 14, 2026, 21:52 UTC

1 53226C 22084AP  26257.91159722 -.00096408  00000+0 -29982-2 0  2579
2 53226  97.2836 312.7970 0001638  82.9209  50.3344 15.33429907    15

Verfolge STARLINK-4359 in Echtzeit mit AllMySat

Download on the App Store